Wetterdaten: Woche 06.02.17 - 12.02.17 (KW6)
Datum Zeit Temp. A. Feuchte A. Luftdruck Regen Wind Richtung Sonnenschein ET UV Solar Taupunkt Windchill Windben Empfang
06.02.2017 00:00 2,7 C 89 % 1002,7 hPa 0,0 l/m 15,2 km/h (3 Bft) O-NO 0,00 h 0,000 mm 0,0 UV-I 0 W/m 1,1 C -3,8 C 21,2 km/h (4 Bft) 98,28 %
06.02.2017 01:00 2,7 C 91 % 1003,3 hPa 0,0 l/m 13,1 km/h (3 Bft) O-NO 0,00 h 0,025 mm 0,0 UV-I 0 W/m 1,4 C -2,5 C 18,6 km/h (3 Bft) 98,73 %
06.02.2017 02:00 2,4 C 92 % 1004,2 hPa 0,0 l/m 3,0 km/h (1 Bft) O-NO 0,00 h 0,000 mm 0,0 UV-I 0 W/m 1,3 C 2,2 C 4,7 km/h (1 Bft) 98,18 %
06.02.2017 03:00 2,0 C 93 % 1005,1 hPa 0,0 l/m 0,5 km/h (0 Bft) NO 0,00 h 0,000 mm 0,0 UV-I 0 W/m 1,0 C 2,0 C 1,1 km/h (0 Bft) 98,63 %
06.02.2017 04:00 1,6 C 93 % 1006,0 hPa 0,0 l/m 0,9 km/h (0 Bft) W 0,00 h 0,000 mm 0,0 UV-I 0 W/m 0,6 C 1,6 C 2,2 km/h (1 Bft) 98,97 %
06.02.2017 05:00 1,4 C 94 % 1006,9 hPa 0,2 l/m 1,2 km/h (1 Bft) S-SW 0,00 h 0,000 mm 0,0 UV-I 0 W/m 0,6 C 1,4 C 2,8 km/h (1 Bft) 98,09 %
06.02.2017 06:00 1,5 C 96 % 1007,9 hPa 0,6 l/m 1,3 km/h (1 Bft) W-SW 0,00 h 0,000 mm 0,0 UV-I 0 W/m 0,9 C 1,5 C 2,7 km/h (1 Bft) 99,17 %
06.02.2017 07:00 1,4 C 96 % 1009,1 hPa 0,8 l/m 1,4 km/h (1 Bft) W-SW 0,00 h 0,000 mm 0,0 UV-I 9 W/m 0,8 C 1,4 C 2,9 km/h (1 Bft) 97,52 %
06.02.2017 08:00 1,3 C 97 % 1010,1 hPa 0,8 l/m 1,1 km/h (1 Bft) W-SW 0,00 h 0,000 mm 0,0 UV-I 44 W/m 0,9 C 1,3 C 2,5 km/h (1 Bft) 98,32 %
06.02.2017 09:00 1,6 C 97 % 1011,0 hPa 0,2 l/m 0,8 km/h (0 Bft) W-SW 0,00 h 0,026 mm 0,0 UV-I 72 W/m 1,2 C 1,6 C 2,1 km/h (1 Bft) 97,16 %
06.02.2017 10:00 1,8 C 97 % 1012,0 hPa 0,2 l/m 4,6 km/h (1 Bft) W-SW 0,00 h 0,025 mm 0,0 UV-I 122 W/m 1,4 C 1,8 C 8,2 km/h (2 Bft) 98,39 %
06.02.2017 11:00 1,9 C 97 % 1012,9 hPa 0,0 l/m 6,4 km/h (2 Bft) W 0,00 h 0,051 mm 0,0 UV-I 91 W/m 1,5 C 1,4 C 10,4 km/h (2 Bft) 95,82 %
06.02.2017 12:00 2,0 C 97 % 1013,4 hPa 0,2 l/m 5,0 km/h (1 Bft) W-SW 0,00 h 0,025 mm 0,3 UV-I 109 W/m 1,6 C 2,0 C 7,9 km/h (2 Bft) 96,85 %
06.02.2017 13:00 2,1 C 96 % 1014,0 hPa 0,4 l/m 5,9 km/h (2 Bft) W-SW 0,00 h 0,051 mm 0,0 UV-I 94 W/m 1,5 C 1,9 C 9,6 km/h (2 Bft) 95,98 %
06.02.2017 14:00 1,5 C 97 % 1014,7 hPa 0,6 l/m 7,0 km/h (2 Bft) W-SW 0,00 h 0,026 mm 0,0 UV-I 82 W/m 1,0 C 0,7 C 11,3 km/h (2 Bft) 97,70 %
06.02.2017 15:00 1,3 C 97 % 1015,2 hPa 0,6 l/m 7,4 km/h (2 Bft) W-SW 0,00 h 0,025 mm 0,0 UV-I 62 W/m 0,9 C 0,3 C 11,5 km/h (2 Bft) 96,45 %
06.02.2017 16:00 1,2 C 97 % 1015,8 hPa 0,8 l/m 7,3 km/h (2 Bft) SW 0,03 h 0,025 mm 0,0 UV-I 33 W/m 0,8 C 0,2 C 11,5 km/h (2 Bft) 98,24 %
06.02.2017 17:00 1,1 C 97 % 1016,7 hPa 0,4 l/m 7,5 km/h (2 Bft) W-SW 0,03 h 0,000 mm 0,0 UV-I 6 W/m 0,6 C -0,1 C 11,4 km/h (2 Bft) 95,61 %
06.02.2017 18:00 1,0 C 97 % 1017,4 hPa 0,4 l/m 7,7 km/h (2 Bft) SW 0,00 h 0,000 mm 0,0 UV-I 0 W/m 0,6 C -0,3 C 11,5 km/h (2 Bft) 96,77 %
06.02.2017 19:00 1,0 C 97 % 1017,8 hPa 0,2 l/m 8,3 km/h (2 Bft) SW 0,00 h 0,000 mm 0,0 UV-I 0 W/m 0,5 C -0,9 C 12,5 km/h (3 Bft) 95,57 %
06.02.2017 20:00 1,1 C 98 % 1018,0 hPa 0,2 l/m 7,1 km/h (2 Bft) SW 0,00 h 0,000 mm 0,0 UV-I 0 W/m 0,8 C 0,2 C 10,3 km/h (2 Bft) 97,46 %
06.02.2017 21:00 1,3 C 98 % 1018,2 hPa 0,6 l/m 7,2 km/h (2 Bft) W-SW 0,00 h 0,000 mm 0,0 UV-I 0 W/m 1,0 C 0,4 C 11,2 km/h (2 Bft) 96,45 %
06.02.2017 22:00 1,3 C 98 % 1018,2 hPa 0,2 l/m 6,7 km/h (2 Bft) SW 0,00 h 0,000 mm 0,0 UV-I 0 W/m 1,0 C 0,8 C 10,4 km/h (2 Bft) 96,88 %
06.02.2017 23:00 1,3 C 98 % 1018,2 hPa 0,0 l/m 6,3 km/h (2 Bft) S-SW 0,00 h 0,000 mm 0,0 UV-I 0 W/m 1,0 C 0,9 C 10,4 km/h (2 Bft) 97,81 %
07.02.2017 00:00 1,3 C 98 % 1018,2 hPa 0,0 l/m 5,4 km/h (1 Bft) SW 0,00 h 0,000 mm 0,0 UV-I 0 W/m 1,1 C 1,2 C 8,1 km/h (2 Bft) 91,47 %
07.02.2017 01:00 1,4 C 98 % 1018,3 hPa 0,0 l/m 3,9 km/h (1 Bft) W-SW 0,00 h 0,000 mm 0,0 UV-I 0 W/m 1,2 C 1,4 C 6,5 km/h (2 Bft) 97,88 %
07.02.2017 02:00 1,3 C 98 % 1018,2 hPa 0,0 l/m 0,0 km/h (0 Bft) N 0,00 h 0,000 mm 0,0 UV-I 0 W/m 1,0 C 1,3 C 0,0 km/h (0 Bft) 97,53 %
07.02.2017 03:00 1,2 C 98 % 1017,9 hPa 0,0 l/m 0,0 km/h (0 Bft) W-SW 0,00 h 0,000 mm 0,0 UV-I 0 W/m 0,9 C 1,2 C 0,2 km/h (0 Bft) 98,41 %
07.02.2017 04:00 1,2 C 98 % 1017,8 hPa 0,0 l/m 0,0 km/h (0 Bft) N 0,00 h 0,000 mm 0,0 UV-I 0 W/m 0,9 C 1,2 C 0,2 km/h (0 Bft) 96,68 %
07.02.2017 05:00 1,1 C 98 % 1017,9 hPa 0,0 l/m 0,0 km/h (0 Bft) N 0,00 h 0,000 mm 0,0 UV-I 0 W/m 0,9 C 1,1 C 0,0 km/h (0 Bft) 98,58 %
07.02.2017 06:00 1,1 C 98 % 1018,2 hPa 0,0 l/m 1,8 km/h (1 Bft) SW 0,00 h 0,000 mm 0,0 UV-I 0 W/m 0,8 C 1,1 C 3,0 km/h (1 Bft) 96,42 %
07.02.2017 07:00 1,2 C 98 % 1018,5 hPa 0,0 l/m 0,4 km/h (0 Bft) SW 0,00 h 0,000 mm 0,0 UV-I 6 W/m 0,9 C 1,2 C 1,2 km/h (1 Bft) 97,00 %
07.02.2017 08:00 1,2 C 98 % 1018,7 hPa 0,0 l/m 0,0 km/h (0 Bft) N 0,00 h 0,000 mm 0,0 UV-I 13 W/m 0,9 C 1,2 C 0,0 km/h (0 Bft) 95,79 %
07.02.2017 09:00 1,4 C 98 % 1018,5 hPa 0,0 l/m 0,2 km/h (0 Bft) SW 0,00 h 0,000 mm 0,0 UV-I 35 W/m 1,1 C 1,4 C 0,6 km/h (0 Bft) 97,49 %
07.02.2017 10:00 1,7 C 98 % 1018,4 hPa 0,0 l/m 0,0 km/h (0 Bft) N 0,00 h 0,000 mm 0,0 UV-I 73 W/m 1,4 C 1,7 C 0,0 km/h (0 Bft) 95,96 %
07.02.2017 11:00 2,1 C 97 % 1018,3 hPa 0,0 l/m 0,5 km/h (0 Bft) SW 0,00 h 0,025 mm 0,4 UV-I 123 W/m 1,7 C 2,1 C 1,4 km/h (1 Bft) 98,11 %
07.02.2017 12:00 2,4 C 96 % 1017,9 hPa 0,0 l/m 0,2 km/h (0 Bft) SW 0,00 h 0,051 mm 0,5 UV-I 145 W/m 1,8 C 2,4 C 0,9 km/h (0 Bft) 96,69 %
07.02.2017 13:00 2,6 C 94 % 1017,6 hPa 0,0 l/m 1,7 km/h (1 Bft) NO 0,00 h 0,051 mm 0,5 UV-I 154 W/m 1,8 C 2,6 C 3,0 km/h (1 Bft) 97,04 %
07.02.2017 14:00 2,6 C 94 % 1017,5 hPa 0,0 l/m 0,6 km/h (0 Bft) NO 0,00 h 0,051 mm 0,0 UV-I 121 W/m 1,8 C 2,6 C 1,2 km/h (1 Bft) 96,00 %
07.02.2017 15:00 2,3 C 95 % 1017,5 hPa 0,0 l/m 4,3 km/h (1 Bft) O-NO 0,00 h 0,051 mm 0,0 UV-I 56 W/m 1,6 C 2,3 C 6,2 km/h (2 Bft) 96,17 %
07.02.2017 16:00 1,9 C 96 % 1017,6 hPa 0,0 l/m 3,5 km/h (1 Bft) O-NO 0,00 h 0,025 mm 0,0 UV-I 29 W/m 1,4 C 1,9 C 5,7 km/h (1 Bft) 97,29 %
07.02.2017 17:00 1,6 C 97 % 1017,8 hPa 0,0 l/m 4,5 km/h (1 Bft) O-NO 0,00 h 0,000 mm 0,0 UV-I 6 W/m 1,1 C 1,3 C 7,1 km/h (2 Bft) 94,78 %
07.02.2017 18:00 1,3 C 97 % 1018,1 hPa 0,0 l/m 8,5 km/h (2 Bft) NO 0,00 h 0,000 mm 0,0 UV-I 0 W/m 0,8 C -1,1 C 12,7 km/h (3 Bft) 96,56 %
07.02.2017 19:00 1,1 C 97 % 1018,4 hPa 0,0 l/m 2,3 km/h (1 Bft) NO 0,00 h 0,000 mm 0,0 UV-I 0 W/m 0,7 C 1,1 C 4,2 km/h (1 Bft) 95,88 %
07.02.2017 20:00 0,8 C 97 % 1018,5 hPa 0,0 l/m 4,2 km/h (1 Bft) N-NO 0,00 h 0,000 mm 0,0 UV-I 0 W/m 0,4 C 0,8 C 7,0 km/h (2 Bft) 96,31 %
07.02.2017 21:00 0,3 C 98 % 1018,4 hPa 0,0 l/m 5,8 km/h (2 Bft) N-NO 0,00 h 0,000 mm 0,0 UV-I 0 W/m -0,1 C -0,4 C 9,1 km/h (2 Bft) 95,02 %
07.02.2017 22:00 -0,2 C 97 % 1018,5 hPa 0,0 l/m 6,6 km/h (2 Bft) NO 0,00 h 0,000 mm 0,0 UV-I 0 W/m -0,6 C -1,0 C 10,4 km/h (2 Bft) 97,47 %
07.02.2017 23:00 -0,4 C 97 % 1018,7 hPa 0,0 l/m 6,9 km/h (2 Bft) O-NO 0,00 h 0,000 mm 0,0 UV-I 0 W/m -0,9 C -1,2 C 10,5 km/h (2 Bft) 97,12 %
08.02.2017 00:00 -0,6 C 96 % 1018,9 hPa 0,0 l/m 10,1 km/h (2 Bft) O-NO 0,00 h 0,000 mm 0,0 UV-I 0 W/m -1,2 C -4,0 C 15,2 km/h (3 Bft) 98,16 %
08.02.2017 01:00 -0,8 C 93 % 1019,2 hPa 0,0 l/m 9,7 km/h (2 Bft) O-NO 0,00 h 0,000 mm 0,0 UV-I 0 W/m -1,8 C -4,0 C 14,4 km/h (3 Bft) 97,22 %
08.02.2017 02:00 -1,0 C 92 % 1019,3 hPa 0,0 l/m 9,5 km/h (2 Bft) O-NO 0,00 h 0,000 mm 0,0 UV-I 0 W/m -2,1 C -4,0 C 14,0 km/h (3 Bft) 97,90 %
08.02.2017 03:00 -1,0 C 91 % 1019,2 hPa 0,0 l/m 9,1 km/h (2 Bft) O-NO 0,00 h 0,000 mm 0,0 UV-I 0 W/m -2,3 C -3,7 C 14,3 km/h (3 Bft) 97,66 %
08.02.2017 04:00 -1,1 C 89 % 1019,3 hPa 0,0 l/m 9,8 km/h (2 Bft) NO 0,00 h 0,000 mm 0,0 UV-I 0 W/m -2,6 C -4,4 C 14,9 km/h (3 Bft) 98,30 %
08.02.2017 05:00 -1,2 C 88 % 1019,5 hPa 0,0 l/m 12,6 km/h (3 Bft) NO 0,00 h 0,000 mm 0,0 UV-I 0 W/m -2,9 C -6,8 C 18,8 km/h (3 Bft) 97,84 %
08.02.2017 06:00 -1,4 C 90 % 1020,3 hPa 0,0 l/m 8,8 km/h (2 Bft) O-NO 0,00 h 0,000 mm 0,0 UV-I 0 W/m -2,8 C -3,8 C 14,0 km/h (3 Bft) 96,00 %
08.02.2017 07:00 -1,3 C 89 % 1021,0 hPa 0,0 l/m 9,5 km/h (2 Bft) O-NO 0,00 h 0,000 mm 0,0 UV-I 9 W/m -2,8 C -4,3 C 14,9 km/h (3 Bft) 92,97 %
08.02.2017 08:00 -1,1 C 88 % 1021,5 hPa 0,0 l/m 9,9 km/h (2 Bft) NO 0,00 h 0,000 mm 0,0 UV-I 50 W/m -2,8 C -4,4 C 15,2 km/h (3 Bft) 93,50 %
08.02.2017 09:00 -0,7 C 86 % 1022,0 hPa 0,0 l/m 10,6 km/h (2 Bft) NO 0,00 h 0,025 mm 0,0 UV-I 94 W/m -2,6 C -4,6 C 15,9 km/h (3 Bft) 93,00 %
08.02.2017 10:00 -0,3 C 85 % 1022,4 hPa 0,0 l/m 10,2 km/h (2 Bft) O-NO 0,00 h 0,051 mm 0,5 UV-I 150 W/m -2,6 C -3,9 C 15,7 km/h (3 Bft) 91,90 %
08.02.2017 11:00 -0,0 C 83 % 1022,6 hPa 0,0 l/m 12,7 km/h (3 Bft) NO 0,03 h 0,051 mm 0,8 UV-I 214 W/m -2,5 C -5,5 C 18,3 km/h (3 Bft) 94,02 %
08.02.2017 12:00 0,5 C 79 % 1022,5 hPa 0,0 l/m 13,2 km/h (3 Bft) NO 1,00 h 0,076 mm 1,0 UV-I 310 W/m -2,6 C -5,1 C 18,5 km/h (3 Bft) 98,58 %
08.02.2017 13:00 1,1 C 76 % 1022,5 hPa 0,0 l/m 13,2 km/h (3 Bft) NO 1,00 h 0,127 mm 0,9 UV-I 343 W/m -2,7 C -4,5 C 18,8 km/h (3 Bft) 98,55 %
08.02.2017 14:00 1,3 C 76 % 1022,7 hPa 0,0 l/m 10,8 km/h (2 Bft) O-NO 0,73 h 0,153 mm 0,6 UV-I 228 W/m -2,5 C -2,6 C 15,9 km/h (3 Bft) 99,07 %
08.02.2017 15:00 1,0 C 78 % 1023,1 hPa 0,0 l/m 10,2 km/h (2 Bft) NO 0,00 h 0,101 mm 0,0 UV-I 120 W/m -2,4 C -2,4 C 15,5 km/h (3 Bft) 98,17 %
08.02.2017 16:00 0,6 C 80 % 1023,3 hPa 0,0 l/m 11,6 km/h (2 Bft) O-NO 0,00 h 0,051 mm 0,0 UV-I 43 W/m -2,4 C -4,0 C 16,7 km/h (3 Bft) 98,94 %
08.02.2017 17:00 0,0 C 83 % 1024,0 hPa 0,0 l/m 12,8 km/h (3 Bft) O-NO 0,07 h 0,025 mm 0,0 UV-I 7 W/m -2,6 C -5,5 C 17,6 km/h (3 Bft) 98,51 %
08.02.2017 18:00 -0,6 C 86 % 1024,5 hPa 0,0 l/m 12,9 km/h (3 Bft) O-NO 0,00 h 0,026 mm 0,0 UV-I 0 W/m -2,7 C -6,2 C 18,0 km/h (3 Bft) 98,84 %
08.02.2017 19:00 -1,1 C 86 % 1025,2 hPa 0,0 l/m 17,4 km/h (3 Bft) O-NO 0,00 h 0,025 mm 0,0 UV-I 0 W/m -3,0 C -9,6 C 24,2 km/h (4 Bft) 98,82 %
08.02.2017 20:00 -1,2 C 86 % 1025,6 hPa 0,0 l/m 16,9 km/h (3 Bft) O-NO 0,00 h 0,026 mm 0,0 UV-I 0 W/m -3,2 C -9,6 C 23,3 km/h (4 Bft) 98,83 %
08.02.2017 21:00 -1,6 C 88 % 1025,9 hPa 0,0 l/m 15,6 km/h (3 Bft) O-NO 0,00 h 0,025 mm 0,0 UV-I 0 W/m -3,3 C -9,2 C 21,4 km/h (4 Bft) 98,73 %
08.02.2017 22:00 -1,9 C 89 % 1026,1 hPa 0,0 l/m 16,8 km/h (3 Bft) O-NO 0,00 h 0,025 mm 0,0 UV-I 0 W/m -3,5 C -10,3 C 22,6 km/h (4 Bft) 98,63 %
08.02.2017 23:00 -2,0 C 88 % 1026,3 hPa 0,0 l/m 18,1 km/h (3 Bft) O-NO 0,00 h 0,026 mm 0,0 UV-I 0 W/m -3,8 C -11,2 C 24,1 km/h (4 Bft) 98,80 %
09.02.2017 00:00 -2,7 C 88 % 1026,6 hPa 0,0 l/m 15,8 km/h (3 Bft) O-NO 0,00 h 0,000 mm 0,0 UV-I 0 W/m -4,4 C -10,6 C 21,7 km/h (4 Bft) 98,16 %
09.02.2017 01:00 -3,3 C 88 % 1026,8 hPa 0,0 l/m 11,6 km/h (2 Bft) O-NO 0,00 h 0,025 mm 0,0 UV-I 0 W/m -4,9 C -8,4 C 16,7 km/h (3 Bft) 98,93 %
09.02.2017 02:00 -3,7 C 88 % 1026,9 hPa 0,0 l/m 14,7 km/h (3 Bft) O-NO 0,00 h 0,000 mm 0,0 UV-I 0 W/m -5,5 C -11,2 C 20,7 km/h (4 Bft) 98,41 %
09.02.2017 03:00 -4,2 C 88 % 1026,8 hPa 0,0 l/m 13,0 km/h (3 Bft) O-NO 0,00 h 0,000 mm 0,0 UV-I 0 W/m -5,8 C -10,5 C 18,5 km/h (3 Bft) 98,87 %
09.02.2017 04:00 -4,5 C 89 % 1026,9 hPa 0,0 l/m 13,5 km/h (3 Bft) NO 0,00 h 0,000 mm 0,0 UV-I 0 W/m -6,1 C -11,3 C 18,9 km/h (3 Bft) 98,04 %
09.02.2017 05:00 -4,6 C 88 % 1027,0 hPa 0,0 l/m 17,8 km/h (3 Bft) O-NO 0,00 h 0,000 mm 0,0 UV-I 0 W/m -6,3 C -14,3 C 24,3 km/h (4 Bft) 99,71 %
09.02.2017 06:00 -4,6 C 87 % 1027,0 hPa 0,0 l/m 20,4 km/h (4 Bft) O-NO 0,00 h 0,026 mm 0,0 UV-I 0 W/m -6,4 C -15,7 C 28,3 km/h (4 Bft) 96,46 %
09.02.2017 07:00 -4,5 C 88 % 1027,0 hPa 0,0 l/m 21,0 km/h (4 Bft) O-NO 0,07 h 0,025 mm 0,0 UV-I 17 W/m -6,2 C -16,0 C 28,6 km/h (4 Bft) 96,92 %
09.02.2017 08:00 -4,1 C 88 % 1027,0 hPa 0,0 l/m 18,8 km/h (3 Bft) O-NO 0,00 h 0,026 mm 0,0 UV-I 64 W/m -5,7 C -14,2 C 24,9 km/h (4 Bft) 96,35 %
09.02.2017 09:00 -3,5 C 88 % 1026,6 hPa 0,0 l/m 20,9 km/h (4 Bft) O-NO 0,03 h 0,025 mm 0,0 UV-I 137 W/m -5,3 C -14,6 C 27,9 km/h (4 Bft) 98,60 %
09.02.2017 10:00 -3,0 C 87 % 1026,2 hPa 0,0 l/m 21,6 km/h (4 Bft) O-NO 0,00 h 0,051 mm 0,5 UV-I 181 W/m -4,8 C -14,2 C 29,6 km/h (5 Bft) 96,79 %
09.02.2017 11:00 -3,1 C 88 % 1025,9 hPa 0,0 l/m 27,5 km/h (4 Bft) O-NO 0,00 h 0,076 mm 0,5 UV-I 173 W/m -4,9 C -16,9 C 37,0 km/h (5 Bft) 99,06 %
09.02.2017 12:00 -3,1 C 88 % 1025,3 hPa 0,0 l/m 23,8 km/h (4 Bft) O-NO 0,03 h 0,076 mm 0,7 UV-I 218 W/m -4,7 C -15,3 C 34,0 km/h (5 Bft) 97,03 %
09.02.2017 13:00 -2,5 C 88 % 1024,6 hPa 0,0 l/m 18,3 km/h (3 Bft) O-NO 0,00 h 0,076 mm 0,7 UV-I 203 W/m -4,2 C -11,9 C 26,2 km/h (4 Bft) 99,07 %
09.02.2017 14:00 -2,3 C 88 % 1024,0 hPa 0,0 l/m 21,6 km/h (4 Bft) O-NO 0,33 h 0,077 mm 0,5 UV-I 184 W/m -4,0 C -13,3 C 30,6 km/h (5 Bft) 97,26 %
09.02.2017 15:00 -2,0 C 88 % 1023,7 hPa 0,0 l/m 22,6 km/h (4 Bft) O-NO 0,43 h 0,076 mm 0,0 UV-I 133 W/m -3,8 C -13,4 C 31,7 km/h (5 Bft) 99,30 %
09.02.2017 16:00 -1,9 C 88 % 1023,3 hPa 0,0 l/m 18,2 km/h (3 Bft) O-NO 0,00 h 0,051 mm 0,0 UV-I 19 W/m -3,5 C -11,0 C 25,4 km/h (4 Bft) 96,19 %
09.02.2017 17:00 -1,9 C 88 % 1023,1 hPa 0,0 l/m 19,8 km/h (3 Bft) O-NO 0,00 h 0,025 mm 0,0 UV-I 6 W/m -3,6 C -11,9 C 27,6 km/h (4 Bft) 99,10 %
09.02.2017 18:00 -1,9 C 89 % 1023,0 hPa 0,0 l/m 19,7 km/h (3 Bft) O-NO 0,00 h 0,025 mm 0,0 UV-I 0 W/m -3,5 C -11,8 C 27,8 km/h (4 Bft) 96,16 %
09.02.2017 19:00 -1,9 C 89 % 1022,9 hPa 0,0 l/m 21,2 km/h (4 Bft) O-NO 0,00 h 0,026 mm 0,0 UV-I 0 W/m -3,4 C -12,6 C 29,0 km/h (5 Bft) 98,93 %
09.02.2017 20:00 -1,9 C 91 % 1022,6 hPa 0,0 l/m 20,6 km/h (4 Bft) O-NO 0,00 h 0,025 mm 0,0 UV-I 0 W/m -3,2 C -12,4 C 29,0 km/h (5 Bft) 96,15 %
09.02.2017 21:00 -1,8 C 91 % 1022,3 hPa 0,0 l/m 19,0 km/h (3 Bft) O-NO 0,00 h 0,026 mm 0,0 UV-I 0 W/m -3,1 C -11,4 C 27,1 km/h (4 Bft) 98,73 %
09.02.2017 22:00 -1,8 C 91 % 1022,0 hPa 0,0 l/m 17,3 km/h (3 Bft) O-NO 0,00 h 0,000 mm 0,0 UV-I 0 W/m -3,0 C -10,5 C 24,8 km/h (4 Bft) 97,14 %
09.02.2017 23:00 -1,8 C 92 % 1021,7 hPa 0,0 l/m 17,0 km/h (3 Bft) O 0,00 h 0,000 mm 0,0 UV-I 0 W/m -2,9 C -10,2 C 24,2 km/h (4 Bft) 98,75 %
10.02.2017 00:00 -1,6 C 91 % 1021,4 hPa 0,0 l/m 17,6 km/h (3 Bft) O 0,00 h 0,000 mm 0,0 UV-I 0 W/m -2,9 C -10,4 C 25,5 km/h (4 Bft) 97,73 %
10.02.2017 01:00 -1,7 C 91 % 1021,1 hPa 0,0 l/m 17,3 km/h (3 Bft) O-NO 0,00 h 0,000 mm 0,0 UV-I 0 W/m -2,9 C -10,3 C 24,7 km/h (4 Bft) 98,31 %
10.02.2017 02:00 -1,7 C 92 % 1020,8 hPa 0,0 l/m 17,2 km/h (3 Bft) O-NO 0,00 h 0,000 mm 0,0 UV-I 0 W/m -2,9 C -10,3 C 24,1 km/h (4 Bft) 97,99 %
10.02.2017 03:00 -1,8 C 92 % 1020,5 hPa 0,0 l/m 14,6 km/h (3 Bft) O-NO 0,00 h 0,000 mm 0,0 UV-I 0 W/m -2,9 C -8,9 C 21,3 km/h (4 Bft) 97,98 %
10.02.2017 04:00 -1,9 C 92 % 1020,2 hPa 0,0 l/m 13,2 km/h (3 Bft) O-NO 0,00 h 0,000 mm 0,0 UV-I 0 W/m -3,0 C -8,0 C 19,0 km/h (3 Bft) 98,45 %
10.02.2017 05:00 -1,9 C 93 % 1020,1 hPa 0,0 l/m 11,8 km/h (2 Bft) O-NO 0,00 h 0,000 mm 0,0 UV-I 0 W/m -3,0 C -7,1 C 17,1 km/h (3 Bft) 97,33 %
10.02.2017 06:00 -1,8 C 92 % 1020,1 hPa 0,0 l/m 12,9 km/h (3 Bft) O-NO 0,00 h 0,000 mm 0,0 UV-I 0 W/m -2,9 C -7,7 C 18,4 km/h (3 Bft) 98,85 %
10.02.2017 07:00 -2,0 C 93 % 1020,5 hPa 0,0 l/m 5,4 km/h (1 Bft) O-NO 0,13 h 0,000 mm 0,0 UV-I 18 W/m -3,1 C -3,8 C 9,4 km/h (2 Bft) 96,52 %
10.02.2017 08:00 -2,5 C 94 % 1020,9 hPa 0,0 l/m 0,8 km/h (0 Bft) O-SO 0,53 h 0,000 mm 0,0 UV-I 100 W/m -3,4 C -2,5 C 2,1 km/h (1 Bft) 97,99 %
10.02.2017 09:00 -1,3 C 91 % 1021,0 hPa 0,0 l/m 0,9 km/h (0 Bft) O-SO 1,00 h 0,025 mm 0,5 UV-I 248 W/m -2,5 C -1,3 C 2,6 km/h (1 Bft) 95,36 %
10.02.2017 10:00 0,3 C 86 % 1021,0 hPa 0,0 l/m 3,5 km/h (1 Bft) O-NO 1,00 h 0,077 mm 0,8 UV-I 394 W/m -1,7 C 0,3 C 6,4 km/h (2 Bft) 96,64 %
10.02.2017 11:00 1,5 C 83 % 1020,7 hPa 0,0 l/m 4,1 km/h (1 Bft) O-SO 1,00 h 0,127 mm 1,1 UV-I 460 W/m -1,1 C 1,4 C 6,7 km/h (2 Bft) 96,19 %
10.02.2017 12:00 2,7 C 80 % 1020,2 hPa 0,0 l/m 3,9 km/h (1 Bft) NO 1,00 h 0,177 mm 1,2 UV-I 472 W/m -0,5 C 2,7 C 7,2 km/h (2 Bft) 95,71 %
10.02.2017 13:00 3,9 C 77 % 1020,0 hPa 0,0 l/m 6,4 km/h (2 Bft) NO 1,00 h 0,178 mm 1,0 UV-I 429 W/m 0,2 C 2,7 C 10,0 km/h (2 Bft) 97,99 %
10.02.2017 14:00 4,3 C 75 % 1019,9 hPa 0,0 l/m 18,9 km/h (3 Bft) O-NO 1,00 h 0,178 mm 0,7 UV-I 340 W/m 0,3 C -3,6 C 25,3 km/h (4 Bft) 95,55 %
10.02.2017 15:00 3,6 C 77 % 1019,8 hPa 0,0 l/m 18,5 km/h (3 Bft) O-NO 0,93 h 0,178 mm 0,5 UV-I 203 W/m 0,1 C -4,2 C 25,1 km/h (4 Bft) 93,97 %
10.02.2017 16:00 2,6 C 81 % 1019,9 hPa 0,0 l/m 16,4 km/h (3 Bft) O-NO 1,00 h 0,101 mm 0,0 UV-I 78 W/m -0,3 C -4,4 C 22,6 km/h (4 Bft) 95,24 %
10.02.2017 17:00 1,6 C 84 % 1020,3 hPa 0,0 l/m 16,7 km/h (3 Bft) O-NO 0,13 h 0,051 mm 0,0 UV-I 10 W/m -0,8 C -6,0 C 23,4 km/h (4 Bft) 96,11 %
10.02.2017 18:00 0,9 C 85 % 1020,5 hPa 0,0 l/m 22,8 km/h (4 Bft) O-NO 0,00 h 0,026 mm 0,0 UV-I 0 W/m -1,4 C -9,5 C 32,0 km/h (5 Bft) 96,25 %
10.02.2017 19:00 0,4 C 85 % 1020,6 hPa 0,0 l/m 18,5 km/h (3 Bft) O-NO 0,00 h 0,025 mm 0,0 UV-I 0 W/m -1,8 C -8,3 C 25,2 km/h (4 Bft) 93,83 %
10.02.2017 20:00 0,1 C 85 % 1020,7 hPa 0,0 l/m 18,3 km/h (3 Bft) O-NO 0,00 h 0,025 mm 0,0 UV-I 0 W/m -2,1 C -8,6 C 25,2 km/h (4 Bft) 94,89 %
10.02.2017 21:00 -0,5 C 87 % 1021,0 hPa 0,0 l/m 13,2 km/h (3 Bft) O-NO 0,00 h 0,026 mm 0,0 UV-I 0 W/m -2,5 C -6,3 C 18,7 km/h (3 Bft) 95,24 %
10.02.2017 22:00 -0,8 C 87 % 1021,0 hPa 0,0 l/m 15,7 km/h (3 Bft) O-NO 0,00 h 0,025 mm 0,0 UV-I 0 W/m -2,7 C -8,3 C 21,5 km/h (4 Bft) 96,48 %
10.02.2017 23:00 -1,0 C 88 % 1021,4 hPa 0,0 l/m 10,1 km/h (2 Bft) O-NO 0,00 h 0,026 mm 0,0 UV-I 0 W/m -2,7 C -4,6 C 15,5 km/h (3 Bft) 95,56 %
11.02.2017 00:00 -1,4 C 89 % 1021,6 hPa 0,0 l/m 4,4 km/h (1 Bft) NO 0,00 h 0,000 mm 0,0 UV-I 0 W/m -2,9 C -1,4 C 7,0 km/h (2 Bft) 97,61 %
11.02.2017 01:00 -1,6 C 90 % 1021,5 hPa 0,0 l/m 5,7 km/h (1 Bft) NO 0,00 h 0,000 mm 0,0 UV-I 0 W/m -3,0 C -2,0 C 8,9 km/h (2 Bft) 96,21 %
11.02.2017 02:00 -1,6 C 90 % 1021,8 hPa 0,0 l/m 2,8 km/h (1 Bft) O-NO 0,00 h 0,000 mm 0,0 UV-I 0 W/m -3,0 C -1,6 C 4,8 km/h (1 Bft) 98,20 %
11.02.2017 03:00 -1,6 C 91 % 1021,9 hPa 0,0 l/m 2,9 km/h (1 Bft) NO 0,00 h 0,000 mm 0,0 UV-I 0 W/m -2,9 C -1,6 C 5,5 km/h (1 Bft) 96,14 %
11.02.2017 04:00 -1,6 C 92 % 1022,2 hPa 0,0 l/m 2,5 km/h (1 Bft) N-NO 0,00 h 0,000 mm 0,0 UV-I 0 W/m -2,8 C -1,6 C 4,9 km/h (1 Bft) 97,97 %
11.02.2017 05:00 -1,4 C 91 % 1022,1 hPa 0,0 l/m 8,9 km/h (2 Bft) O-NO 0,00 h 0,000 mm 0,0 UV-I 0 W/m -2,6 C -3,8 C 12,9 km/h (3 Bft) 96,02 %
11.02.2017 06:00 -1,3 C 90 % 1022,2 hPa 0,0 l/m 8,0 km/h (2 Bft) O-NO 0,00 h 0,000 mm 0,0 UV-I 0 W/m -2,7 C -3,2 C 12,3 km/h (3 Bft) 97,68 %
11.02.2017 07:00 -1,4 C 91 % 1022,5 hPa 0,0 l/m 6,1 km/h (2 Bft) O-NO 0,03 h 0,000 mm 0,0 UV-I 16 W/m -2,7 C -1,6 C 9,2 km/h (2 Bft) 95,65 %
11.02.2017 08:00 -1,1 C 91 % 1022,8 hPa 0,0 l/m 7,3 km/h (2 Bft) O-NO 0,00 h 0,000 mm 0,0 UV-I 48 W/m -2,5 C -2,5 C 11,0 km/h (2 Bft) 97,51 %
11.02.2017 09:00 -0,7 C 90 % 1023,1 hPa 0,0 l/m 9,8 km/h (2 Bft) NO 0,00 h 0,025 mm 0,0 UV-I 71 W/m -2,1 C -3,9 C 14,2 km/h (3 Bft) 94,91 %
11.02.2017 10:00 -0,3 C 89 % 1023,2 hPa 0,0 l/m 11,8 km/h (2 Bft) O-NO 0,00 h 0,026 mm 0,5 UV-I 158 W/m -1,9 C -4,7 C 16,7 km/h (3 Bft) 96,97 %
11.02.2017 11:00 -0,1 C 88 % 1023,2 hPa 0,0 l/m 13,0 km/h (3 Bft) O-NO 0,00 h 0,051 mm 0,6 UV-I 201 W/m -1,8 C -5,8 C 18,6 km/h (3 Bft) 94,33 %
11.02.2017 12:00 -0,0 C 88 % 1022,9 hPa 0,0 l/m 15,0 km/h (3 Bft) O-NO 0,20 h 0,076 mm 0,7 UV-I 236 W/m -1,8 C -6,9 C 21,2 km/h (4 Bft) 95,95 %
11.02.2017 13:00 0,1 C 88 % 1022,5 hPa 0,0 l/m 17,4 km/h (3 Bft) O-NO 0,00 h 0,101 mm 0,6 UV-I 201 W/m -1,7 C -8,1 C 24,0 km/h (4 Bft) 95,22 %
11.02.2017 14:00 0,5 C 87 % 1022,0 hPa 0,0 l/m 16,1 km/h (3 Bft) O-NO 0,80 h 0,077 mm 0,6 UV-I 281 W/m -1,4 C -6,9 C 21,8 km/h (4 Bft) 97,04 %
11.02.2017 15:00 0,7 C 87 % 1021,7 hPa 0,0 l/m 17,0 km/h (3 Bft) O-NO 0,73 h 0,101 mm 0,0 UV-I 185 W/m -1,2 C -7,1 C 22,8 km/h (4 Bft) 95,67 %
11.02.2017 16:00 0,1 C 89 % 1021,7 hPa 0,0 l/m 16,6 km/h (3 Bft) O-NO 0,70 h 0,076 mm 0,0 UV-I 69 W/m -1,5 C -7,7 C 22,8 km/h (4 Bft) 95,82 %
11.02.2017 17:00 -0,1 C 90 % 1021,7 hPa 0,0 l/m 18,4 km/h (3 Bft) O-NO 0,17 h 0,026 mm 0,0 UV-I 12 W/m -1,6 C -8,9 C 25,4 km/h (4 Bft) 95,17 %
11.02.2017 18:00 0,3 C 90 % 1021,9 hPa 0,0 l/m 20,5 km/h (4 Bft) O-NO 0,00 h 0,025 mm 0,0 UV-I 0 W/m -1,2 C -9,4 C 28,3 km/h (4 Bft) 94,95 %
11.02.2017 19:00 0,6 C 90 % 1022,0 hPa 0,0 l/m 14,8 km/h (3 Bft) NO 0,00 h 0,026 mm 0,0 UV-I 0 W/m -0,9 C -5,9 C 21,0 km/h (4 Bft) 95,28 %
11.02.2017 20:00 0,4 C 90 % 1022,6 hPa 0,0 l/m 10,0 km/h (2 Bft) NO 0,00 h 0,000 mm 0,0 UV-I 0 W/m -1,0 C -2,9 C 15,2 km/h (3 Bft) 96,83 %
11.02.2017 21:00 0,3 C 91 % 1023,0 hPa 0,0 l/m 14,5 km/h (3 Bft) NO 0,00 h 0,000 mm 0,0 UV-I 0 W/m -1,0 C -5,8 C 21,1 km/h (4 Bft) 95,68 %
11.02.2017 22:00 0,3 C 90 % 1023,3 hPa 0,0 l/m 18,9 km/h (3 Bft) O-NO 0,00 h 0,000 mm 0,0 UV-I 0 W/m -1,1 C -8,6 C 26,7 km/h (4 Bft) 99,46 %
11.02.2017 23:00 0,3 C 90 % 1023,6 hPa 0,0 l/m 17,6 km/h (3 Bft) O-NO 0,00 h 0,025 mm 0,0 UV-I 0 W/m -1,1 C -8,0 C 24,4 km/h (4 Bft) 98,06 %
12.02.2017 00:00 0,2 C 90 % 1024,0 hPa 0,0 l/m 14,7 km/h (3 Bft) O-NO 0,00 h 0,000 mm 0,0 UV-I 0 W/m -1,2 C -6,5 C 20,9 km/h (4 Bft) 93,62 %
12.02.2017 01:00 0,1 C 91 % 1024,2 hPa 0,0 l/m 12,5 km/h (3 Bft) O-NO 0,00 h 0,000 mm 0,0 UV-I 0 W/m -1,2 C -5,2 C 18,2 km/h (3 Bft) 97,96 %
12.02.2017 02:00 0,0 C 92 % 1024,5 hPa 0,0 l/m 9,7 km/h (2 Bft) O-NO 0,00 h 0,000 mm 0,0 UV-I 0 W/m -1,2 C -3,1 C 14,9 km/h (3 Bft) 98,58 %
12.02.2017 03:00 -0,1 C 92 % 1024,7 hPa 0,0 l/m 9,3 km/h (2 Bft) O-NO 0,00 h 0,000 mm 0,0 UV-I 0 W/m -1,2 C -2,8 C 14,2 km/h (3 Bft) 97,59 %
12.02.2017 04:00 -0,1 C 92 % 1025,3 hPa 0,0 l/m 8,4 km/h (2 Bft) O-NO 0,00 h 0,000 mm 0,0 UV-I 0 W/m -1,2 C -2,2 C 12,5 km/h (3 Bft) 98,60 %
12.02.2017 05:00 -0,1 C 92 % 1025,6 hPa 0,0 l/m 12,0 km/h (2 Bft) O-NO 0,00 h 0,000 mm 0,0 UV-I 0 W/m -1,3 C -5,0 C 17,4 km/h (3 Bft) 96,56 %
12.02.2017 06:00 -0,1 C 91 % 1026,2 hPa 0,0 l/m 15,2 km/h (3 Bft) O-NO 0,00 h 0,000 mm 0,0 UV-I 0 W/m -1,4 C -7,1 C 21,2 km/h (4 Bft) 98,31 %
12.02.2017 07:00 -0,2 C 91 % 1026,7 hPa 0,0 l/m 14,5 km/h (3 Bft) O-NO 0,00 h 0,000 mm 0,0 UV-I 11 W/m -1,5 C -6,8 C 20,4 km/h (4 Bft) 97,25 %
12.02.2017 08:00 -0,1 C 90 % 1027,3 hPa 0,0 l/m 18,1 km/h (3 Bft) O-NO 0,00 h 0,025 mm 0,0 UV-I 37 W/m -1,5 C -8,7 C 24,8 km/h (4 Bft) 96,22 %
12.02.2017 09:00 0,1 C 90 % 1027,6 hPa 0,0 l/m 17,3 km/h (3 Bft) O-NO 0,00 h 0,026 mm 0,0 UV-I 69 W/m -1,3 C -8,1 C 23,9 km/h (4 Bft) 97,10 %
12.02.2017 10:00 0,3 C 90 % 1028,0 hPa 0,0 l/m 19,2 km/h (3 Bft) O-NO 0,00 h 0,025 mm 0,0 UV-I 102 W/m -1,2 C -8,9 C 26,7 km/h (4 Bft) 95,62 %
12.02.2017 11:00 0,4 C 90 % 1028,4 hPa 0,0 l/m 15,8 km/h (3 Bft) O-NO 0,00 h 0,051 mm 0,0 UV-I 113 W/m -1,1 C -6,9 C 21,9 km/h (4 Bft) 97,33 %
12.02.2017 12:00 0,4 C 90 % 1028,5 hPa 0,0 l/m 15,6 km/h (3 Bft) NO 0,00 h 0,051 mm 0,0 UV-I 103 W/m -1,0 C -6,8 C 21,7 km/h (4 Bft) 97,17 %
12.02.2017 13:00 0,4 C 89 % 1028,6 hPa 0,0 l/m 17,7 km/h (3 Bft) O-NO 0,00 h 0,051 mm 0,0 UV-I 112 W/m -1,1 C -7,9 C 23,5 km/h (4 Bft) 96,86 %
12.02.2017 14:00 0,7 C 89 % 1028,5 hPa 0,0 l/m 16,0 km/h (3 Bft) O-NO 0,00 h 0,050 mm 0,0 UV-I 122 W/m -0,9 C -6,6 C 21,7 km/h (4 Bft) 95,76 %
12.02.2017 15:00 0,8 C 89 % 1028,7 hPa 0,0 l/m 15,5 km/h (3 Bft) O-NO 0,00 h 0,051 mm 0,0 UV-I 110 W/m -0,8 C -6,3 C 21,4 km/h (4 Bft) 98,45 %
12.02.2017 16:00 0,6 C 89 % 1028,9 hPa 0,0 l/m 16,6 km/h (3 Bft) O-NO 0,00 h 0,051 mm 0,0 UV-I 46 W/m -1,0 C -7,1 C 22,7 km/h (4 Bft) 96,48 %
12.02.2017 17:00 0,4 C 90 % 1029,2 hPa 0,0 l/m 15,5 km/h (3 Bft) O-NO 0,03 h 0,025 mm 0,0 UV-I 9 W/m -1,0 C -6,7 C 22,2 km/h (4 Bft) 96,56 %
12.02.2017 18:00 0,6 C 90 % 1029,7 hPa 0,0 l/m 14,0 km/h (3 Bft) O-NO 0,00 h 0,026 mm 0,0 UV-I 0 W/m -0,9 C -5,6 C 19,6 km/h (3 Bft) 97,39 %
12.02.2017 19:00 0,5 C 90 % 1030,0 hPa 0,0 l/m 9,9 km/h (2 Bft) O-NO 0,00 h 0,000 mm 0,0 UV-I 0 W/m -1,0 C -2,7 C 14,9 km/h (3 Bft) 97,44 %
12.02.2017 20:00 0,4 C 91 % 1030,2 hPa 0,0 l/m 8,4 km/h (2 Bft) O-NO 0,00 h 0,000 mm 0,0 UV-I 0 W/m -0,9 C -1,5 C 12,4 km/h (3 Bft) 95,80 %
12.02.2017 21:00 0,3 C 91 % 1030,4 hPa 0,0 l/m 8,6 km/h (2 Bft) NO 0,00 h 0,000 mm 0,0 UV-I 0 W/m -1,0 C -1,8 C 12,9 km/h (3 Bft) 98,74 %
12.02.2017 22:00 0,4 C 90 % 1030,4 hPa 0,0 l/m 8,0 km/h (2 Bft) NO 0,00 h 0,000 mm 0,0 UV-I 0 W/m -1,0 C -1,2 C 12,3 km/h (3 Bft) 95,36 %
12.02.2017 23:00 0,4 C 90 % 1030,4 hPa 0,0 l/m 7,3 km/h (2 Bft) NO 0,00 h 0,000 mm 0,0 UV-I 0 W/m -1,1 C -0,6 C 10,8 km/h (2 Bft) 98,49 %
Min-Datum _ 09.02.17 10.02.17 06.02.17 - 06.02.17 - - - - - 09.02.17 09.02.17 06.02.17 07.02.17
_ Min-Zeit 04:48 13:58 00:16 - 02:36 - - - - - 05:36 11:50 02:36 00:02
Minimum _ -4,7 C 73 % 1002,5 hPa - 0,0 km/h (0 Bft) - - - - - -6,4 C -18,7 C 0,0 km/h (0 Bft) 9,09 %
Max-Datum _ 10.02.17 06.02.17 12.02.17 06.02.17 09.02.17 - 08.02.17 10.02.17 10.02.17 10.02.17 07.02.17 10.02.17 09.02.17 06.02.17
_ Max-Zeit 13:46 19:56 21:48 07:12 11:33 - 13:23 13:00 11:36 12:18 13:42 13:50 14:54 00:00
Maximum _ 4,6 C 98 % 1030,5 hPa 0,8 l/m 32,5 km/h
O-NO (5 Bft)
- 0,05 h 0,178 mm 1,2 UV-I 477 W/m 1,9 C 4,2 C 45,1 km/h
O-NO (6 Bft)
100,00 %
Durchschnitt _ -0,1 C 91 % 1021,2 hPa #7,4 l/m 11,0 km/h (2 Bft) O-NO #15:12 h #4,395 mm 0,7 UV-I 123 W/m -1,5 C -4,6 C 15,8 km/h (3 Bft) 97,02 %